Powrót do katalogu

LUCH 1

AktywnyŁącznośćGEO
NORAD 23680·PAYLOAD·🇷🇺 Russia

Wystrzelony Oct 11, 1995 z Baikonur Cosmodrome

Loading…

TLE

ŚwieżeSource: Space-Track

Epoka: Sep 13, 2026, 18:14 UTC

1 23680U 95054A   26256.76031815 -.00000096  00000-0  00000-0 0  9990
2 23680  15.0472 358.5263 0006785 158.8251 181.8096  1.00271089113239

Śledź LUCH 1 w czasie rzeczywistym z AllMySat

Download on the App Store